Hourly Data Report for January 31, 2021

TORONTO CITY
ONTARIO
Current Station Operator: ECCC - MSC

43°40'00.000" N
79°24'00.000" W
112.50 m
6158355
71508
XTO

Download Data

Hourly Data (January 2021)
Hourly Data Report for January 31, 2021
TIME
LST
Temp Definition
°C
Dew Point Definition
°C
Rel Hum Definition
%
Precip. Amount Definition
mm

Wind Dir Definition
10's deg

Wind Spd Definition
km/h
Visibility Definition
km
Stn Press Definition
kPa
Hmdx Definition


Wind Chill Definition


Weather Definition


00:00 -6.2 -11.6 66 0.0       101.18     LegendNANA
01:00 -6.9 -13.0 62 0.0       101.17     LegendNANA
02:00 -7.1 -12.3 67 0.0       101.11     LegendNANA
03:00 -7.3 -12.1 69 0.0       101.09     LegendNANA
04:00 -6.3 -10.4 73 0.0       101.06     LegendNANA
05:00 -5.6 -9.0 77 0.0       100.98     LegendNANA
06:00 -5.7 -9.3 76 0.0       100.97     LegendNANA
07:00 -5.9 -9.2 77 0.0       100.95     LegendNANA
08:00 -5.4 -8.1 81 0.0       100.94     LegendNANA
09:00 -4.6 -6.9 84 0.0       100.89     LegendNANA
10:00 -4.7 -7.2 83 0.0       100.85     LegendNANA
11:00 -5.0 -7.4 83 0.0       100.85     LegendNANA
12:00 -4.6 -7.2 82 0.0       100.84     LegendNANA
13:00 -5.2 -8.6 77 0.0       100.76     LegendNANA
14:00 -5.2 -9.2 73 0.0       100.72     LegendNANA
15:00 -4.7 -9.1 71 0.0       100.69     LegendNANA
16:00 -4.3 -8.7 71 0.0       100.64     LegendNANA
17:00 -4.6 -10.4 64 0.0       100.65     LegendNANA
18:00 -5.2 -14.4 48 0.0       100.65     LegendNANA
19:00 -5.5 -14.9 48 0.0       100.66     LegendNANA
20:00 -5.5 -12.7 57 0.0       100.66     LegendNANA
21:00 -5.7 -11.6 63 0.0       100.66     LegendNANA
22:00 -6.3 -12.2 63 0.0       100.65     LegendNANA
23:00 -7.1 -13.1 62 0.0       100.63     LegendNANA

Notes on Data Quality.

Legend

  • E = Estimated
  • M = Missing
  • NA = Not Available*
  • [empty] = Indicates an unobserved value
Date modified: